Year,Month,Day,Hour,Minute,Value (Times are PST for temperature in C)
2008,08,19,00,00,16.60
2008,08,19,00,01,16.60
2008,08,19,00,02,16.60
2008,08,19,00,03,16.60
2008,08,19,00,04,16.60
2008,08,19,00,05,16.60
2008,08,19,00,06,16.60
2008,08,19,00,07,16.60
2008,08,19,00,08,16.60
2008,08,19,00,09,16.60
2008,08,19,00,10,16.60
2008,08,19,00,11,16.60
2008,08,19,00,12,16.60
2008,08,19,00,13,16.60
2008,08,19,01,02,16.30
2008,08,19,01,03,16.30
2008,08,19,01,04,16.30
2008,08,19,01,05,16.30
2008,08,19,01,06,16.30
2008,08,19,01,07,16.30
2008,08,19,01,08,16.30
2008,08,19,01,09,16.40
2008,08,19,01,10,16.40
2008,08,19,01,11,16.40
2008,08,19,01,12,16.40
2008,08,19,01,13,16.40
2008,08,19,01,14,16.40
2008,08,19,01,15,16.40
2008,08,19,01,16,16.40
2008,08,19,01,17,16.40
2008,08,19,01,18,16.40
2008,08,19,01,19,16.40
2008,08,19,01,20,16.40
2008,08,19,01,21,16.40
2008,08,19,01,22,16.40
2008,08,19,01,23,16.40
2008,08,19,01,24,16.30
2008,08,19,01,25,16.30
2008,08,19,01,26,16.30
2008,08,19,01,27,16.30
2008,08,19,01,28,16.30
2008,08,19,01,29,16.30
2008,08,19,01,30,16.30
2008,08,19,01,31,16.30
2008,08,19,01,32,16.30
2008,08,19,01,33,16.30
2008,08,19,01,34,16.30
2008,08,19,01,35,16.30
2008,08,19,01,36,16.30
2008,08,19,01,37,16.20
2008,08,19,01,38,16.20
2008,08,19,01,39,16.20
2008,08,19,01,40,16.20
2008,08,19,01,41,16.20
2008,08,19,01,42,16.20
2008,08,19,01,43,16.20
2008,08,19,01,44,16.20
2008,08,19,01,45,16.20
2008,08,19,01,46,16.20
2008,08,19,01,47,16.10
2008,08,19,01,48,16.10
2008,08,19,01,49,16.10
2008,08,19,01,50,16.10
2008,08,19,01,51,16.10
2008,08,19,01,52,16.10
2008,08,19,01,53,16.10
2008,08,19,01,54,16.10
2008,08,19,01,55,16.10
2008,08,19,01,56,16.10
2008,08,19,01,57,16.10
2008,08,19,01,58,16.10
2008,08,19,01,59,16.10
2008,08,19,02,00,16.10
2008,08,19,02,01,16.10
2008,08,19,02,02,16.10
2008,08,19,02,03,16.10
2008,08,19,02,04,16.10
2008,08,19,02,05,16.10
2008,08,19,02,06,16.10
2008,08,19,02,07,16.10
2008,08,19,02,08,16.10
2008,08,19,02,09,16.10
2008,08,19,02,10,16.10
2008,08,19,02,11,16.10
2008,08,19,02,12,16.10
2008,08,19,02,13,16.10
2008,08,19,02,14,16.10
2008,08,19,02,15,16.10
2008,08,19,02,16,16.10
2008,08,19,02,17,16.10
2008,08,19,02,18,16.10
2008,08,19,02,19,16.10
2008,08,19,02,20,16.10
2008,08,19,02,21,16.10
2008,08,19,02,22,16.10
2008,08,19,02,23,16.10
2008,08,19,02,24,16.10
2008,08,19,02,25,16.10
2008,08,19,02,26,16.10
2008,08,19,02,27,16.10
2008,08,19,02,28,16.10
2008,08,19,02,29,16.10
2008,08,19,02,30,16.10
2008,08,19,02,31,16.10
2008,08,19,02,32,16.10
2008,08,19,02,33,16.10
2008,08,19,02,34,16.10
2008,08,19,02,35,16.10
2008,08,19,02,36,16.10
2008,08,19,02,37,16.10
2008,08,19,02,38,16.10
2008,08,19,02,39,16.10
2008,08,19,02,40,16.10
2008,08,19,02,41,16.10
2008,08,19,02,42,16.10
2008,08,19,02,43,16.10
2008,08,19,02,44,16.10
2008,08,19,02,45,16.10
2008,08,19,02,46,16.10
2008,08,19,02,47,16.10
2008,08,19,02,48,16.10
2008,08,19,02,49,16.10
2008,08,19,02,50,16.10
2008,08,19,02,51,16.10
2008,08,19,02,52,16.10
2008,08,19,02,53,16.10
2008,08,19,02,54,16.10
2008,08,19,02,55,16.10
2008,08,19,02,56,16.10
2008,08,19,02,57,16.10
2008,08,19,02,58,16.10
2008,08,19,02,59,16.10
2008,08,19,03,00,16.10
2008,08,19,03,01,16.10
2008,08,19,03,02,16.00
2008,08,19,03,03,16.00
2008,08,19,03,04,16.00
2008,08,19,03,05,16.00
2008,08,19,03,06,16.00
2008,08,19,03,07,16.00
2008,08,19,03,08,16.00
2008,08,19,03,09,16.00
2008,08,19,03,10,16.00
2008,08,19,03,11,16.00
2008,08,19,03,12,16.00
2008,08,19,03,13,15.90
2008,08,19,03,14,15.90
2008,08,19,03,15,15.90
2008,08,19,03,16,15.90
2008,08,19,03,17,15.90
2008,08,19,03,18,15.90
2008,08,19,03,19,16.00
2008,08,19,03,20,16.00
2008,08,19,03,21,16.00
2008,08,19,03,22,16.00
2008,08,19,03,23,16.00
2008,08,19,03,24,16.10
2008,08,19,03,25,16.10
2008,08,19,03,26,16.10
2008,08,19,03,27,16.10
2008,08,19,03,28,16.10
2008,08,19,03,29,16.10
2008,08,19,03,30,16.10
2008,08,19,03,31,16.10
2008,08,19,03,32,16.10
2008,08,19,03,33,16.10
2008,08,19,03,34,16.20
2008,08,19,03,35,16.20
2008,08,19,03,36,16.20
2008,08,19,03,37,16.20
2008,08,19,03,38,16.20
2008,08,19,03,39,16.20
2008,08,19,03,40,16.20
2008,08,19,03,41,16.20
2008,08,19,03,42,16.20
2008,08,19,03,43,16.20
2008,08,19,03,44,16.20
2008,08,19,03,45,16.20
2008,08,19,03,46,16.20
2008,08,19,03,47,16.20
2008,08,19,03,48,16.30
2008,08,19,03,49,16.30
2008,08,19,03,50,16.30
2008,08,19,03,51,16.30
2008,08,19,03,52,16.30
2008,08,19,03,53,16.30
2008,08,19,03,54,16.30
2008,08,19,03,55,16.30
2008,08,19,03,56,16.30
2008,08,19,03,57,16.30
2008,08,19,03,58,16.20
2008,08,19,03,59,16.20
2008,08,19,04,00,16.20
2008,08,19,04,01,16.20
2008,08,19,04,02,16.20
2008,08,19,04,03,16.20
2008,08,19,04,04,16.20
2008,08,19,04,05,16.20
2008,08,19,04,06,16.20
2008,08,19,04,07,16.20
2008,08,19,04,08,16.20
2008,08,19,04,09,16.20
2008,08,19,04,10,16.20
2008,08,19,04,11,16.20
2008,08,19,04,12,16.20
2008,08,19,04,13,16.20
2008,08,19,04,14,16.20
2008,08,19,04,15,16.20
2008,08,19,04,16,16.10
2008,08,19,04,17,16.10
2008,08,19,04,18,16.10
2008,08,19,04,19,16.10
2008,08,19,04,20,16.10
2008,08,19,04,21,16.10
2008,08,19,04,22,16.10
2008,08,19,04,23,16.10
2008,08,19,04,24,16.10
2008,08,19,04,25,16.10
2008,08,19,04,26,16.10
2008,08,19,04,27,16.00
2008,08,19,04,28,16.00
2008,08,19,04,29,16.00
2008,08,19,04,30,16.00
2008,08,19,04,31,16.00
2008,08,19,04,32,16.00
2008,08,19,04,33,16.00
2008,08,19,04,34,16.00
2008,08,19,04,35,16.00
2008,08,19,04,36,16.00
2008,08,19,04,37,16.00
2008,08,19,04,38,16.00
2008,08,19,04,39,16.00
2008,08,19,04,40,16.00
2008,08,19,04,41,16.00
2008,08,19,04,42,16.00
2008,08,19,04,43,16.00
2008,08,19,04,44,16.00
2008,08,19,04,45,16.00
2008,08,19,04,46,16.00
2008,08,19,04,47,16.00
2008,08,19,04,48,16.00
2008,08,19,04,49,16.00
2008,08,19,04,50,16.00
2008,08,19,04,51,16.00
2008,08,19,04,52,16.00
2008,08,19,04,53,16.00
2008,08,19,04,54,16.00
2008,08,19,04,55,16.00
2008,08,19,04,56,16.00
2008,08,19,04,57,16.00
2008,08,19,04,58,16.00
2008,08,19,04,59,16.00
2008,08,19,05,00,16.00
2008,08,19,05,01,16.00
2008,08,19,05,02,16.00
2008,08,19,05,03,16.00
2008,08,19,05,04,16.00
2008,08,19,05,05,16.00
2008,08,19,05,06,16.00
2008,08,19,05,07,16.00
2008,08,19,05,08,16.00
2008,08,19,05,09,16.00
2008,08,19,05,10,16.00
2008,08,19,05,11,16.10
2008,08,19,05,12,16.10
2008,08,19,05,13,16.10
2008,08,19,05,14,16.10
2008,08,19,05,15,16.10
2008,08,19,05,16,16.10
2008,08,19,05,17,16.10
2008,08,19,05,18,16.10
2008,08,19,05,19,16.10
2008,08,19,05,20,16.10
2008,08,19,05,21,16.10
2008,08,19,05,22,16.10
2008,08,19,05,23,16.10
2008,08,19,05,24,16.10
2008,08,19,05,25,16.10
2008,08,19,05,26,16.10
2008,08,19,05,27,16.10
2008,08,19,05,28,16.10
2008,08,19,05,29,16.10
2008,08,19,05,30,16.10
2008,08,19,05,31,16.10
2008,08,19,05,32,16.10
2008,08,19,05,33,16.10
2008,08,19,05,34,16.10
2008,08,19,05,35,16.10
2008,08,19,05,36,16.10
2008,08,19,05,37,16.10
2008,08,19,05,38,16.10
2008,08,19,05,39,16.10
2008,08,19,05,40,16.10
2008,08,19,05,41,16.10
2008,08,19,05,42,16.10
2008,08,19,05,43,16.10
2008,08,19,05,44,16.10
2008,08,19,05,45,16.10
2008,08,19,05,46,16.10
2008,08,19,05,47,16.10
2008,08,19,05,48,16.10
2008,08,19,05,49,16.10
2008,08,19,05,50,16.10
2008,08,19,05,51,16.10
2008,08,19,05,52,16.10
2008,08,19,05,53,16.10
2008,08,19,05,54,16.10
2008,08,19,05,55,16.10
2008,08,19,05,56,16.10
2008,08,19,05,57,16.10
2008,08,19,05,58,16.10
2008,08,19,05,59,16.10
2008,08,19,06,00,16.10
2008,08,19,06,01,16.10
2008,08,19,06,02,16.10
2008,08,19,06,03,16.10
2008,08,19,06,04,16.10
2008,08,19,06,05,16.10
2008,08,19,06,06,16.10
2008,08,19,06,07,16.10
2008,08,19,06,08,16.10
2008,08,19,06,09,16.10
2008,08,19,06,10,16.10
2008,08,19,06,11,16.00
2008,08,19,06,12,16.10
2008,08,19,06,13,16.00
2008,08,19,06,14,16.00
2008,08,19,06,15,16.00
2008,08,19,06,16,16.00
2008,08,19,06,17,16.00
2008,08,19,06,18,16.00
2008,08,19,06,19,16.00
2008,08,19,06,20,16.00
2008,08,19,06,21,16.00
2008,08,19,06,22,16.00
2008,08,19,06,23,16.00
2008,08,19,06,24,16.00
2008,08,19,06,25,15.90
2008,08,19,06,26,15.90
2008,08,19,06,27,15.90
2008,08,19,06,28,15.90
2008,08,19,06,29,15.90
2008,08,19,06,30,15.90
2008,08,19,06,31,15.90
2008,08,19,06,32,15.90
2008,08,19,06,33,15.90
2008,08,19,06,34,15.90
2008,08,19,06,35,15.90
2008,08,19,06,36,15.90
2008,08,19,06,37,15.90
2008,08,19,06,38,16.00
2008,08,19,06,39,16.00
2008,08,19,06,40,16.00
2008,08,19,06,41,16.00
2008,08,19,06,42,16.00
2008,08,19,06,43,16.10
2008,08,19,06,44,16.10
2008,08,19,06,45,16.10
2008,08,19,06,46,16.10
2008,08,19,06,47,16.10
2008,08,19,06,48,16.10
2008,08,19,06,49,16.10
2008,08,19,06,50,16.10
2008,08,19,06,51,16.10
2008,08,19,06,52,16.20
2008,08,19,06,53,16.20
2008,08,19,06,54,16.20
2008,08,19,06,55,16.20
2008,08,19,06,56,16.20
2008,08,19,06,57,16.20
2008,08,19,06,58,16.20
2008,08,19,06,59,16.20
2008,08,19,07,00,16.20
2008,08,19,07,01,16.20
2008,08,19,07,02,16.20
2008,08,19,07,03,16.30
2008,08,19,07,04,16.30
2008,08,19,07,05,16.30
2008,08,19,07,06,16.30
2008,08,19,07,07,16.30
2008,08,19,07,08,16.30
2008,08,19,07,09,16.30
2008,08,19,07,10,16.40
2008,08,19,07,11,16.40
2008,08,19,07,12,16.40
2008,08,19,07,13,16.40
2008,08,19,07,14,16.40
2008,08,19,07,15,16.40
2008,08,19,07,16,16.40
2008,08,19,07,17,16.40
2008,08,19,07,18,16.40
2008,08,19,07,19,16.40
2008,08,19,07,20,16.40
2008,08,19,07,21,16.40
2008,08,19,07,22,16.40
2008,08,19,07,23,16.40
2008,08,19,07,24,16.40
2008,08,19,07,25,16.40
2008,08,19,07,26,16.40
2008,08,19,07,27,16.40
2008,08,19,07,28,16.40
2008,08,19,07,29,16.40
2008,08,19,07,30,16.40
2008,08,19,07,31,16.40
2008,08,19,07,32,16.40
2008,08,19,07,33,16.40
2008,08,19,07,34,16.40
2008,08,19,07,35,16.40
2008,08,19,07,36,16.40
2008,08,19,07,37,16.40
2008,08,19,07,38,16.50
2008,08,19,07,39,16.50
2008,08,19,07,40,16.50
2008,08,19,07,41,16.50
2008,08,19,07,42,16.60
2008,08,19,07,43,16.60
2008,08,19,07,44,16.60
2008,08,19,07,45,16.60
2008,08,19,07,46,16.60
2008,08,19,07,47,16.60
2008,08,19,07,48,16.70
2008,08,19,07,49,16.70
2008,08,19,07,50,16.70
2008,08,19,07,51,16.70
2008,08,19,07,52,16.70
2008,08,19,07,53,16.80
2008,08,19,07,54,16.80
2008,08,19,07,55,16.80
2008,08,19,07,56,16.80
2008,08,19,07,57,16.80
2008,08,19,07,58,16.80
2008,08,19,07,59,16.80
2008,08,19,08,00,16.80
2008,08,19,08,01,16.80
2008,08,19,08,02,16.90
2008,08,19,08,03,16.90
2008,08,19,08,04,16.90
2008,08,19,08,05,16.90
2008,08,19,08,06,16.90
2008,08,19,08,07,16.90
2008,08,19,08,08,16.90
2008,08,19,08,09,16.90
2008,08,19,08,10,16.90
2008,08,19,08,11,16.90
2008,08,19,08,12,16.90
2008,08,19,08,13,16.90
2008,08,19,08,14,16.90
2008,08,19,08,15,16.90
2008,08,19,08,16,17.00
2008,08,19,08,17,17.00
2008,08,19,08,18,17.00
2008,08,19,08,19,17.00
2008,08,19,08,20,17.10
2008,08,19,08,21,17.10
2008,08,19,08,22,17.10
2008,08,19,08,23,17.10
2008,08,19,08,24,17.10
2008,08,19,08,25,17.20
2008,08,19,08,26,17.20
2008,08,19,08,27,17.20
2008,08,19,08,28,17.20
2008,08,19,08,29,17.20
2008,08,19,08,30,17.20
2008,08,19,08,31,17.20
2008,08,19,08,32,17.20
2008,08,19,08,33,17.30
2008,08,19,08,34,17.30
2008,08,19,08,35,17.30
2008,08,19,08,36,17.30
2008,08,19,08,37,17.30
2008,08,19,08,38,17.30
2008,08,19,08,39,17.30
2008,08,19,08,40,17.30
2008,08,19,08,41,17.30
2008,08,19,08,42,17.40
2008,08,19,08,43,17.40
2008,08,19,08,44,17.40
2008,08,19,08,45,17.40
2008,08,19,08,46,17.40
2008,08,19,08,47,17.40
2008,08,19,08,48,17.40
2008,08,19,08,49,17.40
2008,08,19,08,50,17.40
2008,08,19,08,51,17.40
2008,08,19,08,52,17.40
2008,08,19,08,53,17.40
2008,08,19,08,54,17.40
2008,08,19,08,55,17.40
2008,08,19,08,56,17.40
2008,08,19,08,57,17.40
2008,08,19,08,58,17.40
2008,08,19,08,59,17.40
2008,08,19,09,00,17.40
2008,08,19,09,01,17.40
2008,08,19,09,02,17.40
2008,08,19,09,03,17.40
2008,08,19,09,04,17.40
2008,08,19,09,05,17.30
2008,08,19,09,06,17.30
2008,08,19,09,07,17.30
2008,08,19,09,08,17.40
2008,08,19,09,09,17.40
2008,08,19,09,10,17.40
2008,08,19,09,11,17.40
2008,08,19,09,12,17.40
2008,08,19,09,13,17.40
2008,08,19,09,14,17.40
2008,08,19,09,15,17.40
2008,08,19,09,16,17.40
2008,08,19,09,17,17.50
2008,08,19,09,18,17.50
2008,08,19,09,19,17.50
2008,08,19,09,20,17.60
2008,08,19,09,21,17.60
2008,08,19,09,22,17.60
2008,08,19,09,23,17.60
2008,08,19,09,24,17.60
2008,08,19,09,25,17.70
2008,08,19,09,26,17.70
2008,08,19,09,27,17.80
2008,08,19,09,28,17.80
2008,08,19,09,29,17.80
2008,08,19,09,30,17.90
2008,08,19,09,31,17.90
2008,08,19,09,32,18.00
2008,08,19,09,33,18.10
2008,08,19,09,34,18.10
2008,08,19,09,35,18.20
2008,08,19,09,36,18.30
2008,08,19,09,37,18.30
2008,08,19,09,38,18.40
2008,08,19,09,39,18.40
2008,08,19,09,40,18.40
2008,08,19,09,41,18.50
2008,08,19,09,42,18.50
2008,08,19,09,43,18.50
2008,08,19,09,44,18.50
2008,08,19,09,45,18.50
2008,08,19,09,46,18.50
2008,08,19,09,47,18.50
2008,08,19,09,48,18.50
2008,08,19,09,49,18.50
2008,08,19,09,50,18.50
2008,08,19,09,51,18.50
2008,08,19,09,52,18.40
2008,08,19,09,53,18.50
2008,08,19,09,54,18.50
2008,08,19,09,55,18.50
2008,08,19,09,56,18.50
2008,08,19,09,57,18.40
2008,08,19,09,58,18.40
2008,08,19,09,59,18.40
2008,08,19,10,00,18.40
2008,08,19,10,01,18.40
2008,08,19,10,02,18.40
2008,08,19,10,03,18.40
2008,08,19,10,04,18.40
2008,08,19,10,05,18.40
2008,08,19,10,06,18.40
2008,08,19,10,07,18.40
2008,08,19,10,08,18.40
2008,08,19,10,09,18.40
2008,08,19,10,10,18.40
2008,08,19,10,11,18.40
2008,08,19,10,12,18.40
2008,08,19,10,13,18.40
2008,08,19,10,14,18.40
2008,08,19,10,15,18.40
2008,08,19,10,16,18.40
2008,08,19,10,17,18.40
2008,08,19,10,18,18.40
2008,08,19,10,19,18.40
2008,08,19,10,20,18.40
2008,08,19,10,21,18.40
2008,08,19,10,22,18.40
2008,08,19,10,23,18.40
2008,08,19,10,24,18.40
2008,08,19,10,25,18.40
2008,08,19,10,26,18.30
2008,08,19,10,27,18.30
2008,08,19,10,28,18.30
2008,08,19,10,29,18.30
2008,08,19,10,30,18.30
2008,08,19,10,31,18.30
2008,08,19,10,32,18.30
2008,08,19,10,33,18.30
2008,08,19,10,34,18.30
2008,08,19,10,35,18.30
2008,08,19,10,36,18.30
2008,08,19,10,37,18.30
2008,08,19,10,38,18.30
2008,08,19,10,39,18.30
2008,08,19,10,40,18.30
2008,08,19,10,41,18.20
2008,08,19,10,42,18.20
2008,08,19,10,43,18.20
2008,08,19,10,44,18.20
2008,08,19,10,45,18.20
2008,08,19,10,46,18.10
2008,08,19,10,47,18.10
2008,08,19,10,48,18.10
2008,08,19,10,49,18.10
2008,08,19,10,50,18.10
2008,08,19,10,51,18.10
2008,08,19,10,52,18.10
2008,08,19,10,53,18.10
2008,08,19,10,54,18.10
2008,08,19,10,55,18.10
2008,08,19,10,56,18.10
2008,08,19,10,57,18.20
2008,08,19,10,58,18.20
2008,08,19,10,59,18.20
2008,08,19,11,00,18.20
2008,08,19,11,01,18.20
2008,08,19,11,02,18.20
2008,08,19,11,03,18.20
2008,08,19,11,04,18.30
2008,08,19,11,05,18.30
2008,08,19,11,06,18.30
2008,08,19,11,07,18.30
2008,08,19,11,08,18.40
2008,08,19,11,09,18.40
2008,08,19,11,10,18.40
2008,08,19,11,11,18.40
2008,08,19,11,12,18.50
2008,08,19,11,13,18.40
2008,08,19,11,14,18.40
2008,08,19,11,15,18.40
2008,08,19,11,16,18.40
2008,08,19,11,17,18.40
2008,08,19,11,18,18.40
2008,08,19,11,19,18.40
2008,08,19,11,20,18.40
2008,08,19,11,21,18.40
2008,08,19,11,22,18.40
2008,08,19,11,23,18.30
2008,08,19,11,24,18.30
2008,08,19,11,25,18.30
2008,08,19,11,26,18.20
2008,08,19,11,27,18.20
2008,08,19,11,28,18.20
2008,08,19,11,29,18.20
2008,08,19,11,30,18.10
2008,08,19,11,31,18.10
2008,08,19,11,32,18.10
2008,08,19,11,33,18.00
2008,08,19,11,34,18.00
2008,08,19,11,35,18.00
2008,08,19,11,36,18.00
2008,08,19,11,37,18.00
2008,08,19,11,38,18.10
2008,08,19,11,39,18.10
2008,08,19,11,40,18.00
2008,08,19,11,41,18.00
2008,08,19,11,42,18.00
2008,08,19,11,43,18.10
2008,08,19,11,44,18.10
2008,08,19,11,45,18.10
2008,08,19,11,46,18.10
2008,08,19,11,47,18.10
2008,08,19,11,48,18.10
2008,08,19,11,49,18.10
2008,08,19,11,50,18.20
2008,08,19,11,51,18.20
2008,08,19,11,52,18.20
2008,08,19,11,53,18.20
2008,08,19,11,54,18.20
2008,08,19,11,55,18.20
2008,08,19,11,56,18.30
2008,08,19,11,57,18.30
2008,08,19,11,58,18.30
2008,08,19,11,59,18.30
2008,08,19,12,00,18.30
2008,08,19,12,01,18.30
2008,08,19,12,02,18.20
2008,08,19,12,03,18.20
2008,08,19,12,04,18.20
2008,08,19,12,05,18.20
2008,08,19,12,06,18.20
2008,08,19,12,07,18.20
2008,08,19,12,08,18.20
2008,08,19,12,09,18.20
2008,08,19,12,10,18.20
2008,08,19,12,11,18.20
2008,08,19,12,12,18.20
2008,08,19,12,13,18.20
2008,08,19,12,14,18.20
2008,08,19,12,15,18.20
2008,08,19,12,16,18.20
2008,08,19,12,17,18.20
2008,08,19,12,18,18.20
2008,08,19,12,19,18.20
2008,08,19,12,20,18.20
2008,08,19,12,21,18.20
2008,08,19,12,22,18.20
2008,08,19,12,23,18.30
2008,08,19,12,24,18.30
2008,08,19,12,25,18.30
2008,08,19,12,26,18.30
2008,08,19,12,27,18.30
2008,08,19,12,28,18.30
2008,08,19,12,29,18.30
2008,08,19,12,30,18.30
2008,08,19,12,31,18.30
2008,08,19,12,32,18.40
2008,08,19,12,33,18.40
2008,08,19,12,34,18.40
2008,08,19,12,35,18.40
2008,08,19,12,36,18.40
2008,08,19,12,37,18.40
2008,08,19,12,38,18.40
2008,08,19,12,39,18.50
2008,08,19,12,40,18.50
2008,08,19,12,41,18.50
2008,08,19,12,42,18.60
2008,08,19,12,43,18.60
2008,08,19,12,44,18.60
2008,08,19,12,45,18.60
2008,08,19,12,46,18.60
2008,08,19,12,47,18.60
2008,08,19,12,48,18.70
2008,08,19,12,49,18.70
2008,08,19,12,50,18.70
2008,08,19,12,51,18.70
2008,08,19,12,52,18.70
2008,08,19,12,53,18.60
2008,08,19,12,54,18.60
2008,08,19,12,55,18.60
2008,08,19,12,56,18.60
2008,08,19,12,57,18.60
2008,08,19,12,58,18.70
2008,08,19,12,59,18.70
2008,08,19,13,00,18.70
2008,08,19,13,01,18.70
2008,08,19,13,02,18.80
2008,08,19,13,03,18.80
2008,08,19,13,04,18.80
2008,08,19,13,05,18.80
2008,08,19,13,06,18.80
2008,08,19,13,07,18.80
2008,08,19,13,08,18.80
2008,08,19,13,09,18.80
2008,08,19,13,10,18.80
2008,08,19,13,11,18.70
2008,08,19,13,12,18.70
2008,08,19,13,13,18.70
2008,08,19,13,14,18.80
2008,08,19,13,15,18.80
2008,08,19,13,16,19.00
2008,08,19,13,17,19.10
2008,08,19,13,18,19.20
2008,08,19,13,19,19.30
2008,08,19,13,20,19.30
2008,08,19,13,21,19.40
2008,08,19,13,22,19.50
2008,08,19,13,23,19.50
2008,08,19,13,24,19.60
2008,08,19,13,25,19.60
2008,08,19,13,26,19.50
2008,08,19,13,27,19.40
2008,08,19,13,28,19.30
2008,08,19,13,29,19.30
2008,08,19,13,30,19.10
2008,08,19,13,31,19.00
2008,08,19,13,32,18.90
2008,08,19,13,33,18.80
2008,08,19,13,34,18.80
2008,08,19,13,35,18.70
2008,08,19,13,36,18.60
2008,08,19,13,37,18.50
2008,08,19,13,38,18.50
2008,08,19,13,39,18.40
2008,08,19,13,40,18.40
2008,08,19,13,41,18.30
2008,08,19,13,42,18.30
2008,08,19,13,43,18.30
2008,08,19,13,44,18.30
2008,08,19,13,45,18.30
2008,08,19,13,46,18.40
2008,08,19,13,47,18.40
2008,08,19,13,48,18.40
2008,08,19,13,49,18.40
2008,08,19,13,50,18.50
2008,08,19,13,51,18.60
2008,08,19,13,52,18.80
2008,08,19,13,53,18.90
2008,08,19,13,54,18.90
2008,08,19,13,55,18.90
2008,08,19,13,56,19.00
2008,08,19,13,57,19.10
2008,08,19,13,58,19.10
2008,08,19,13,59,19.20
2008,08,19,14,00,19.20
2008,08,19,14,01,19.30
2008,08,19,14,02,19.30
2008,08,19,14,03,19.30
2008,08,19,14,04,19.40
2008,08,19,14,05,19.40
2008,08,19,14,06,19.50
2008,08,19,14,07,19.50
2008,08,19,14,08,19.60
2008,08,19,14,09,19.60
2008,08,19,14,10,19.60
2008,08,19,14,11,19.60
2008,08,19,14,12,19.60
2008,08,19,14,13,19.60
2008,08,19,14,14,19.70
2008,08,19,14,15,19.70
2008,08,19,14,16,19.70
2008,08,19,14,17,19.70
2008,08,19,14,18,19.70
2008,08,19,14,19,19.70
2008,08,19,14,20,19.70
2008,08,19,14,21,19.70
2008,08,19,14,22,19.70
2008,08,19,14,23,19.60
2008,08,19,14,24,19.50
2008,08,19,14,25,19.30
2008,08,19,14,26,19.20
2008,08,19,14,27,19.10
2008,08,19,14,28,19.00
2008,08,19,14,29,18.90
2008,08,19,14,30,18.90
2008,08,19,14,31,18.90
2008,08,19,14,32,18.80
2008,08,19,14,33,18.80
2008,08,19,14,34,18.70
2008,08,19,14,35,18.60
2008,08,19,14,36,18.60
2008,08,19,14,37,18.60
2008,08,19,14,38,18.70
2008,08,19,14,39,18.80
2008,08,19,14,40,18.80
2008,08,19,14,41,18.90
2008,08,19,14,42,19.00
2008,08,19,14,43,19.20
2008,08,19,14,44,19.20
2008,08,19,14,45,19.30
2008,08,19,14,46,19.30
2008,08,19,14,47,19.40
2008,08,19,14,48,19.30
2008,08,19,14,49,19.20
2008,08,19,14,50,19.20
2008,08,19,14,51,19.20
2008,08,19,14,52,19.30
2008,08,19,14,53,19.30
2008,08,19,14,54,19.30
2008,08,19,14,55,19.30
2008,08,19,14,56,19.20
2008,08,19,14,57,19.30
2008,08,19,14,58,19.30
2008,08,19,14,59,19.30
2008,08,19,15,00,19.20
2008,08,19,15,01,19.10
2008,08,19,15,02,19.00
2008,08,19,15,03,19.00
2008,08,19,15,04,18.90
2008,08,19,15,05,18.90
2008,08,19,15,06,18.80
2008,08,19,15,07,18.70
2008,08,19,15,08,18.70
2008,08,19,15,09,18.70
2008,08,19,15,10,18.70
2008,08,19,15,11,18.60
2008,08,19,15,12,18.60
2008,08,19,15,13,18.60
2008,08,19,15,14,18.60
2008,08,19,15,15,18.60
2008,08,19,15,16,18.60
2008,08,19,15,17,18.60
2008,08,19,15,18,18.60
2008,08,19,15,19,18.60
2008,08,19,15,20,18.50
2008,08,19,15,21,18.50
2008,08,19,15,22,18.50
2008,08,19,15,23,18.40
2008,08,19,15,24,18.40
2008,08,19,15,25,18.30
2008,08,19,15,26,18.30
2008,08,19,15,27,18.20
2008,08,19,15,28,18.10
2008,08,19,15,29,18.10
2008,08,19,15,30,18.00
2008,08,19,15,31,18.00
2008,08,19,15,32,17.90
2008,08,19,15,33,17.90
2008,08,19,15,34,17.90
2008,08,19,15,35,17.90
2008,08,19,15,36,17.90
2008,08,19,15,37,17.90
2008,08,19,15,38,17.90
2008,08,19,15,39,17.90
2008,08,19,15,40,17.90
2008,08,19,15,41,18.00
2008,08,19,15,42,18.00
2008,08,19,15,43,18.00
2008,08,19,15,44,18.00
2008,08,19,15,45,18.00
2008,08,19,15,46,18.00
2008,08,19,15,47,17.90
2008,08,19,15,48,17.90
2008,08,19,15,49,17.80
2008,08,19,15,50,17.80
2008,08,19,15,51,17.80
2008,08,19,15,52,17.80
2008,08,19,15,53,17.80
2008,08,19,15,54,17.80
2008,08,19,15,55,17.80
2008,08,19,15,56,17.80
2008,08,19,15,57,17.80
2008,08,19,15,58,17.80
2008,08,19,15,59,17.80
2008,08,19,16,00,17.80
2008,08,19,16,01,17.80
2008,08,19,16,02,17.80
2008,08,19,16,03,17.80
2008,08,19,16,04,17.80
2008,08,19,16,05,17.90
2008,08,19,16,06,17.90
2008,08,19,16,07,17.90
2008,08,19,16,08,17.90
2008,08,19,16,09,17.90
2008,08,19,16,10,18.00
2008,08,19,16,11,18.00
2008,08,19,16,12,18.00
2008,08,19,16,13,18.00
2008,08,19,16,14,18.00
2008,08,19,16,15,17.90
2008,08,19,16,16,17.90
2008,08,19,16,17,17.90
2008,08,19,16,18,17.90
2008,08,19,16,19,17.90
2008,08,19,16,20,17.90
2008,08,19,16,21,17.90
2008,08,19,16,22,17.90
2008,08,19,16,23,17.90
2008,08,19,16,24,17.90
2008,08,19,16,25,17.80
2008,08,19,16,26,17.80
2008,08,19,16,27,17.80
2008,08,19,16,28,17.80
2008,08,19,16,29,17.80
2008,08,19,16,30,17.80
2008,08,19,16,31,17.80
2008,08,19,16,32,17.70
2008,08,19,16,33,17.70
2008,08,19,16,34,17.70
2008,08,19,16,35,17.70
2008,08,19,16,36,17.70
2008,08,19,16,37,17.60
2008,08,19,16,38,17.60
2008,08,19,16,39,17.60
2008,08,19,16,40,17.50
2008,08,19,16,41,17.50
2008,08,19,16,42,17.40
2008,08,19,16,43,17.40
2008,08,19,16,44,17.40
2008,08,19,16,45,17.40
2008,08,19,16,46,17.40
2008,08,19,16,47,17.40
2008,08,19,16,48,17.40
2008,08,19,16,49,17.30
2008,08,19,16,50,17.30
2008,08,19,16,51,17.30
2008,08,19,16,52,17.30
2008,08,19,16,53,17.30
2008,08,19,16,54,17.30
2008,08,19,16,55,17.30
2008,08,19,16,56,17.30
2008,08,19,16,57,17.30
2008,08,19,16,58,17.30
2008,08,19,16,59,17.30
2008,08,19,17,00,17.30
2008,08,19,17,01,17.30
2008,08,19,17,02,17.30
2008,08,19,17,03,17.30
2008,08,19,17,04,17.30
2008,08,19,17,05,17.30
2008,08,19,17,06,17.30
2008,08,19,17,07,17.30
2008,08,19,17,08,17.30
2008,08,19,17,09,17.30
2008,08,19,17,10,17.30
2008,08,19,17,11,17.20
2008,08,19,17,12,17.20
2008,08,19,17,13,17.20
2008,08,19,17,14,17.20
2008,08,19,17,15,17.20
2008,08,19,17,16,17.20
2008,08,19,17,17,17.20
2008,08,19,17,18,17.20
2008,08,19,17,19,17.20
2008,08,19,17,20,17.20
2008,08,19,17,21,17.20
2008,08,19,17,22,17.20
2008,08,19,17,23,17.20
2008,08,19,17,24,17.20
2008,08,19,17,25,17.20
2008,08,19,17,26,17.20
2008,08,19,17,27,17.20
2008,08,19,17,28,17.20
2008,08,19,17,29,17.20
2008,08,19,17,30,17.20
2008,08,19,17,31,17.20
2008,08,19,17,32,17.20
2008,08,19,17,33,17.20
2008,08,19,17,34,17.20
2008,08,19,17,35,17.20
2008,08,19,17,36,17.20
2008,08,19,17,37,17.20
2008,08,19,17,38,17.20
2008,08,19,17,39,17.20
2008,08,19,17,40,17.20
2008,08,19,17,41,17.20
2008,08,19,17,42,17.20
2008,08,19,17,43,17.20
2008,08,19,17,44,17.20
2008,08,19,17,45,17.20
2008,08,19,17,46,17.20
2008,08,19,17,47,17.20
2008,08,19,17,48,17.20
2008,08,19,17,49,17.30
2008,08,19,17,50,17.30
2008,08,19,17,51,17.30
2008,08,19,17,52,17.30
2008,08,19,17,53,17.30
2008,08,19,17,54,17.30
2008,08,19,17,55,17.30
2008,08,19,17,56,17.30
2008,08,19,17,57,17.30
2008,08,19,17,58,17.30
2008,08,19,17,59,17.30
2008,08,19,18,00,17.30
2008,08,19,18,01,17.30
2008,08,19,18,02,17.30
2008,08,19,18,03,17.20
2008,08,19,18,04,17.30
2008,08,19,18,05,17.20
2008,08,19,18,06,17.20
2008,08,19,18,07,17.20